When you browse on this site, cookies collect data to enhance your experience and personalize the content and advertising you see.
Visit our Privacy Policy to learn more. By continuing to use the site, you agree to this use of cookies and data.
EN

Hourly Weather Ordino

Today, 9 July, Thursday

Time Temperature Precipitation Wind Pressure Humidity
00:00 +15°C° 0 mm 2 mps 636 mmHg 81%
01:00 +15°C° 0 mm 2 mps 635 mmHg 77%
02:00 +15°C° 0 mm 1 mps 635 mmHg 74%
03:00 +15°C° 0 mm 1 mps 635 mmHg 70%
04:00 +16°C° 0 mm 1 mps 635 mmHg 70%
05:00 +18°C° 0 mm 1 mps 636 mmHg 70%
06:00 +19°C° 0 mm 1 mps 637 mmHg 68%
07:00 +21°C° 0 mm 1 mps 637 mmHg 62%
08:00 +23°C° 0 mm 1 mps 638 mmHg 56%
09:00 +25°C° 0 mm 1 mps 639 mmHg 49%
10:00 +25°C° 0.2 mm 1 mps 639 mmHg 48%
11:00 +26°C° 0.2 mm 2 mps 639 mmHg 46%
12:00 +27°C° 0.2 mm 2 mps 639 mmHg 44%
13:00 +26°C° 0.7 mm 2 mps 639 mmHg 47%
14:00 +26°C° 0.7 mm 3 mps 639 mmHg 50%
15:00 +25°C° 0.7 mm 3 mps 638 mmHg 53%
16:00 +24°C° 1 mm 2 mps 638 mmHg 60%
17:00 +23°C° 1 mm 1 mps 637 mmHg 66%
18:00 +22°C° 1 mm 1 mps 636 mmHg 73%
19:00 +20°C° 0.7 mm 1 mps 636 mmHg 77%
20:00 +18°C° 0.7 mm 1 mps 636 mmHg 82%
21:00 +16°C° 0.7 mm 1 mps 636 mmHg 87%
22:00 +15°C° 0 mm 1 mps 635 mmHg 84%
23:00 +15°C° 0 mm 1 mps 635 mmHg 81%

Tomorrow, 10 July, Friday

Time Temperature Precipitation Wind Pressure Humidity
00:00 +15°C° 0 mm 1 mps 635 mmHg 79%
01:00 +15°C° 0.1 mm 1 mps 635 mmHg 78%
02:00 +14°C° 0.1 mm 1 mps 635 mmHg 78%
03:00 +14°C° 0.1 mm 1 mps 634 mmHg 78%
04:00 +15°C° 0.2 mm 1 mps 635 mmHg 79%
05:00 +16°C° 0.2 mm 1 mps 635 mmHg 81%
06:00 +16°C° 0.2 mm 1 mps 635 mmHg 82%
07:00 +19°C° 0.4 mm 1 mps 636 mmHg 76%
08:00 +20°C° 0.4 mm 1 mps 637 mmHg 71%
09:00 +21°C° 0.4 mm 1 mps 637 mmHg 66%
10:00 +21°C° 0.4 mm 2 mps 637 mmHg 63%
11:00 +21°C° 0.4 mm 2 mps 637 mmHg 61%
12:00 +23°C° 0.4 mm 2 mps 637 mmHg 58%
13:00 +23°C° 0.8 mm 2 mps 637 mmHg 61%
14:00 +21°C° 0.8 mm 2 mps 637 mmHg 63%
15:00 +21°C° 0.8 mm 2 mps 636 mmHg 65%
16:00 +19°C° 1.1 mm 2 mps 636 mmHg 73%
17:00 +18°C° 1.1 mm 2 mps 635 mmHg 81%
18:00 +16°C° 1.1 mm 1 mps 634 mmHg 89%
19:00 +16°C° 0.2 mm 1 mps 635 mmHg 90%
20:00 +15°C° 0.2 mm 1 mps 635 mmHg 91%
21:00 +14°C° 0.2 mm 1 mps 635 mmHg 92%
22:00 +14°C° 0.2 mm 1 mps 635 mmHg 93%
23:00 +14°C° 0.2 mm 1 mps 635 mmHg 94%

Day after tomorrow, 11 July, Saturday

Time Temperature Precipitation Wind Pressure Humidity
00:00 +14°C° 0.2 mm 1 mps 635 mmHg 95%
01:00 +14°C° 0 mm 1 mps 635 mmHg 95%
02:00 +13°C° 0 mm 1 mps 635 mmHg 95%
03:00 +13°C° 0 mm 1 mps 635 mmHg 95%
04:00 +13°C° 0 mm 1 mps 635 mmHg 95%
05:00 +13°C° 0 mm 1 mps 635 mmHg 94%
06:00 +14°C° 0 mm 1 mps 636 mmHg 94%
07:00 +15°C° 0 mm 1 mps 636 mmHg 89%
08:00 +16°C° 0 mm 1 mps 637 mmHg 84%
09:00 +18°C° 0 mm 1 mps 637 mmHg 79%
10:00 +18°C° 0 mm 1 mps 637 mmHg 77%
11:00 +19°C° 0 mm 1 mps 637 mmHg 74%
12:00 +20°C° 0 mm 1 mps 637 mmHg 72%
13:00 +20°C° 0.3 mm 1 mps 637 mmHg 71%
14:00 +20°C° 0.3 mm 1 mps 638 mmHg 71%
15:00 +21°C° 0.3 mm 1 mps 638 mmHg 70%
16:00 +20°C° 0.3 mm 1 mps 637 mmHg 75%
17:00 +19°C° 0.3 mm 1 mps 637 mmHg 80%
18:00 +16°C° 0.3 mm 1 mps 636 mmHg 85%
19:00 +16°C° 0.1 mm 1 mps 636 mmHg 88%
20:00 +15°C° 0.1 mm 1 mps 636 mmHg 91%
21:00 +14°C° 0.1 mm 1 mps 636 mmHg 94%
22:00 +14°C° 0 mm 1 mps 636 mmHg 94%
23:00 +13°C° 0 mm 1 mps 636 mmHg 94%

12 July, Sunday

Time Temperature Precipitation Wind Pressure Humidity
00:00 +12°C° 0 mm 0 mps 636 mmHg 95%
01:00 +13°C° 0 mm 1 mps 636 mmHg 95%
02:00 +13°C° 0 mm 1 mps 635 mmHg 95%
03:00 +12°C° 0 mm 1 mps 635 mmHg 95%
04:00 +13°C° 0 mm 1 mps 635 mmHg 91%
05:00 +13°C° 0 mm 0 mps 636 mmHg 88%
06:00 +14°C° 0 mm 0 mps 636 mmHg 85%
07:00 +18°C° 0 mm 1 mps 637 mmHg 77%
08:00 +20°C° 0 mm 1 mps 638 mmHg 69%
09:00 +21°C° 0 mm 2 mps 639 mmHg 62%
10:00 +23°C° 0 mm 2 mps 639 mmHg 58%
11:00 +24°C° 0 mm 2 mps 639 mmHg 53%
12:00 +25°C° 0 mm 2 mps 640 mmHg 49%
13:00 +24°C° 1 mm 2 mps 639 mmHg 54%
14:00 +24°C° 1 mm 2 mps 639 mmHg 59%
15:00 +23°C° 1 mm 2 mps 638 mmHg 64%
16:00 +22°C° 1.4 mm 1 mps 638 mmHg 71%
17:00 +21°C° 1.4 mm 1 mps 637 mmHg 77%
18:00 +20°C° 1.4 mm 1 mps 636 mmHg 83%
19:00 +19°C° 0.4 mm 1 mps 636 mmHg 85%
20:00 +15°C° 0.4 mm 0 mps 636 mmHg 88%
21:00 +14°C° 0.4 mm 0 mps 637 mmHg 90%
22:00 +14°C° 0.5 mm 0 mps 636 mmHg 90%
23:00 +14°C° 0.5 mm 0 mps 636 mmHg 90%

13 July, Monday

Time Temperature Precipitation Wind Pressure Humidity
00:00 +14°C° 0.5 mm 0 mps 636 mmHg 90%
01:00 +13°C° 0.3 mm 0 mps 636 mmHg 90%
02:00 +13°C° 0.3 mm 0 mps 636 mmHg 90%
03:00 +13°C° 0.3 mm 0 mps 636 mmHg 90%
04:00 +13°C° 0.7 mm 0 mps 636 mmHg 90%
05:00 +14°C° 0.7 mm 0 mps 636 mmHg 89%
06:00 +14°C° 0.7 mm 0 mps 637 mmHg 89%
07:00 +18°C° 0.4 mm 1 mps 637 mmHg 84%
08:00 +19°C° 0.4 mm 1 mps 638 mmHg 78%
09:00 +21°C° 0.4 mm 1 mps 638 mmHg 72%
10:00 +21°C° 1.1 mm 1 mps 638 mmHg 71%
11:00 +22°C° 1.1 mm 1 mps 638 mmHg 71%
12:00 +22°C° 1.1 mm 1 mps 638 mmHg 70%
13:00 +22°C° 1.6 mm 1 mps 638 mmHg 71%
14:00 +22°C° 1.6 mm 1 mps 638 mmHg 71%
15:00 +22°C° 1.6 mm 1 mps 637 mmHg 72%
16:00 +21°C° 0.8 mm 1 mps 637 mmHg 75%
17:00 +19°C° 0.8 mm 2 mps 637 mmHg 79%
18:00 +18°C° 0.8 mm 2 mps 636 mmHg 82%
19:00 +17°C° 0 mm 2 mps 636 mmHg 85%
20:00 +15°C° 0 mm 1 mps 636 mmHg 88%
21:00 +14°C° 0 mm 1 mps 636 mmHg 91%
22:00 +14°C° 0 mm 1 mps 636 mmHg 92%
23:00 +13°C° 0 mm 1 mps 635 mmHg 92%

14 July, Tuesday

Time Temperature Precipitation Wind Pressure Humidity
00:00 +12°C° 0 mm 1 mps 635 mmHg 93%
01:00 +12°C° 0 mm 1 mps 635 mmHg 92%
02:00 +12°C° 0 mm 1 mps 634 mmHg 92%
03:00 +11°C° 0 mm 0 mps 634 mmHg 91%
04:00 +12°C° 0 mm 0 mps 635 mmHg 90%
05:00 +12°C° 0 mm 0 mps 635 mmHg 89%
06:00 +13°C° 0 mm 0 mps 635 mmHg 88%
07:00 +15°C° 0 mm 1 mps 636 mmHg 85%
08:00 +16°C° 0 mm 1 mps 636 mmHg 82%
09:00 +18°C° 0 mm 1 mps 636 mmHg 79%
10:00 +18°C° 0.1 mm 1 mps 636 mmHg 75%
11:00 +18°C° 0.1 mm 2 mps 636 mmHg 72%
12:00 +19°C° 0.1 mm 2 mps 636 mmHg 68%
13:00 +19°C° 0.4 mm 1 mps 636 mmHg 72%
14:00 +19°C° 0.4 mm 1 mps 635 mmHg 75%
15:00 +18°C° 0.4 mm 1 mps 635 mmHg 78%
16:00 +18°C° 0.5 mm 1 mps 635 mmHg 81%
17:00 +16°C° 0.5 mm 1 mps 634 mmHg 84%
18:00 +16°C° 0.5 mm 1 mps 634 mmHg 87%
19:00 +15°C° 0.8 mm 1 mps 634 mmHg 90%
20:00 +14°C° 0.8 mm 1 mps 634 mmHg 92%
21:00 +13°C° 0.8 mm 1 mps 634 mmHg 95%
22:00 +13°C° 2.4 mm 1 mps 634 mmHg 95%
23:00 +12°C° 2.4 mm 0 mps 634 mmHg 95%
Show more